Weather History for Torrington, WY

Change the Weather History Date:

Tuesday, October 8, 2013

  Actual Average Record
Temperature  
Mean Temperature 60 °F 51 °F  
Max Temperature 77 °F 67 °F 82 °F (2003)
Min Temperature 42 °F 36 °F 19 °F (2000)
Degree Days  
Heating Degree Days 5 14  
Month to date heating degree days 123 100  
Since 1 July heating degree days 228 294  
Cooling Degree Days 0 0  
Month to date cooling degree days 0 0  
Year to date cooling degree days 893 678  
Growing Degree Days 10 (Base 50)    
Moisture  
Dew Point 39 °F    
Average Humidity 53    
Maximum Humidity 89    
Minimum Humidity 16    
Precipitation  
Precipitation 0.00 in 0.03 in 1.38 in (2011)
Month to date precipitation 0.99 0.30  
Year to date precipitation 10.17 12.63  
Sea Level Pressure  
Sea Level Pressure 29.72 in    
Wind  
Wind Speed 5 mph (NE)    
Max Wind Speed 15 mph    
Max Gust Speed 18 mph    
Visibility 10 miles    
Events      
T = Trace of Precipitation, MM = Missing Value Source: NWS Daily Summary

Daily Weather History Graph

Daily Weather History Graph

Search for Another Location

Airport:

Trip Planner

Search our weather history database for the weather conditions in past years. The results will help you decide how hot, cold, wet, or windy it might be!

Date:

Astronomy

Oct. 08, 2013 Rise Set
Actual Time 7:01 AM MDT 6:25 PM MDT
Civil Twilight 6:33 AM MDT 6:53 PM MDT
Nautical Twilight 6:01 AM MDT 7:26 PM MDT
Astronomical Twilight 5:28 AM MDT 7:58 PM MDT
Moon 11:02 AM MDT (10/8) 9:00 PM MDT (10/8)
Length of Visible Light 12h 20m
Length of Day
11h 24m
Waxing Crescent, 16% of the Moon is Illuminated
Oct 8
Waxing Crescent
Oct 11
First Quarter
Oct 18
Full
Oct 26
Last Quarter
Nov 3
New

Hourly Weather History & Observations

Time (MDT) Temp. Windchill Dew Point Humidity Pressure Visibility Wind Dir Wind Speed Gust Speed Precip Events Conditions
12:53 AM 48.9 °F - 37.9 °F 66% 29.75 in 10.0 mi Calm Calm - N/A   Clear
1:53 AM 46.0 °F - 39.0 °F 76% 29.75 in 10.0 mi Calm Calm - N/A   Clear
2:53 AM 43.0 °F 38.8 °F 37.9 °F 82% 29.74 in 10.0 mi NNE 6.9 mph - N/A   Clear
3:53 AM 43.0 °F - 37.9 °F 82% 29.73 in 10.0 mi Calm Calm - N/A   Clear
4:53 AM 45.0 °F 42.6 °F 39.0 °F 80% 29.74 in 10.0 mi SE 4.6 mph - N/A   Clear
5:53 AM 42.1 °F 39.2 °F 39.0 °F 89% 29.75 in 10.0 mi NE 4.6 mph - N/A   Clear
6:53 AM 44.1 °F 42.5 °F 39.0 °F 82% 29.75 in 10.0 mi South 3.5 mph - N/A   Clear
7:53 AM 45.0 °F - 39.0 °F 80% 29.77 in 10.0 mi Calm Calm - N/A   Clear
8:53 AM 46.0 °F - 41.0 °F 83% 29.79 in 10.0 mi Calm Calm - N/A   Clear
9:53 AM 51.1 °F - 42.1 °F 71% 29.78 in 10.0 mi Calm Calm - N/A   Clear
10:53 AM 57.9 °F - 41.0 °F 53% 29.75 in 10.0 mi Calm Calm - N/A   Clear
11:53 AM 64.9 °F - 42.1 °F 43% 29.71 in 10.0 mi Calm Calm - N/A   Clear
12:53 PM 70.0 °F - 41.0 °F 35% 29.68 in 10.0 mi Calm Calm - N/A   Clear
1:53 PM 75.0 °F - 33.1 °F 22% 29.64 in 10.0 mi Calm Calm - N/A   Clear
2:53 PM 77.0 °F - 28.9 °F 17% 29.63 in 10.0 mi Variable 3.5 mph - N/A   Clear
3:53 PM 77.0 °F - 33.1 °F 20% 29.63 in 10.0 mi SSE 6.9 mph - N/A   Clear
4:53 PM 75.9 °F - 34.0 °F 22% 29.62 in 10.0 mi SSE 6.9 mph - N/A   Clear
5:53 PM 68.0 °F - 36.0 °F 31% 29.66 in 10.0 mi ENE 4.6 mph - N/A   Clear
6:53 PM 61.0 °F - 39.0 °F 44% 29.70 in 10.0 mi NNE 6.9 mph - N/A   Clear
7:53 PM 55.9 °F - 39.9 °F 55% 29.73 in 10.0 mi NNE 11.5 mph - N/A   Clear
8:53 PM 55.0 °F - 42.1 °F 62% 29.74 in 10.0 mi NE 12.7 mph - N/A   Clear
9:53 PM 53.1 °F - 43.0 °F 69% 29.74 in 10.0 mi North 6.9 mph - N/A   Clear
10:53 PM 51.1 °F - 42.1 °F 71% 29.74 in 10.0 mi NNE 15.0 mph - N/A   Clear
11:53 PM 50.0 °F - 41.0 °F 71% 29.72 in 10.0 mi NNE 12.7 mph - N/A   Clear